Willimantic, CT

5:11 PM EST on December 11, 2019 (GMT -0500)
Windham

Weather History for KIJD - July, 2019

Change the Weather History Date:

Monday, July 22, 2019

  Actual Average Record
Temperature  
Mean Temperature 74 °F -  
Max Temperature 84 °F 83 °F 100 °F (1991)
Min Temperature 66 °F 60 °F 46 °F (1958)
Cooling Degree Days 9    
Growing Degree Days 24 (Base 50)    
Moisture  
Dew Point 66 °F    
Average Humidity 83    
Maximum Humidity 100    
Minimum Humidity 58    
Precipitation  
Precipitation 1.25 in - - ()
Sea Level Pressure  
Sea Level Pressure 29.81 in    
Wind  
Wind Speed 4 mph (NE)    
Max Wind Speed 16 mph    
Max Gust Speed 21 mph    
Visibility 7 miles    
Events Fog , Rain , Thunderstorm    
Averages and records for this station are not official NWS values.
T = Trace of Precipitation, MM = Missing Value Source: NWS Daily Summary

Daily Weather History Graph

Daily Weather History Graph

Search for Another Location

Airport or City:

Astronomy

Jul. 22, 2019 Rise Set
Actual Time 5:33 AM EDT 8:16 PM EDT
Civil Twilight 5:00 AM EDT 8:49 PM EDT
Nautical Twilight 4:19 AM EDT 9:29 PM EDT
Astronomical Twilight 3:33 AM EDT 10:16 PM EDT
Moon 11:31 PM EDT (7/22) 10:51 AM EDT (7/22)
Length of Visible Light 15h 48m
Length of Day
14h 43m
Waning Gibbous, 72% of the Moon is Illuminated
Jul 22
Waning Gibbous
Jul 24
Last Quarter
Jul 31
New
Aug 7
First Quarter
Aug 15
Full

Hourly Weather History & Observations

Time (EDT) Temp. Heat Index Dew Point Humidity Pressure Visibility Wind Dir Wind Speed Gust Speed Precip Events Conditions
12:52 AM 75.9 °F - 66.0 °F 71% 29.83 in 10.0 mi Calm Calm - N/A   Clear
1:52 AM 75.0 °F - 64.0 °F 69% 29.84 in 10.0 mi Calm Calm - N/A   Clear
2:52 AM 73.9 °F - 64.0 °F 71% 29.85 in 10.0 mi Calm Calm - N/A   Clear
3:52 AM 71.1 °F - 64.0 °F 78% 29.84 in 10.0 mi East 3.5 mph - N/A   Clear
4:52 AM 69.1 °F - 64.0 °F 84% 29.83 in 10.0 mi Calm Calm - N/A   Clear
5:52 AM 69.1 °F - 63.0 °F 81% 29.85 in 10.0 mi Calm Calm - N/A   Clear
6:52 AM 71.1 °F - 63.0 °F 75% 29.87 in 10.0 mi Calm Calm - N/A   Clear
7:52 AM 73.9 °F - 64.9 °F 73% 29.88 in 10.0 mi Calm Calm - N/A   Clear
8:52 AM 77.0 °F - 63.0 °F 62% 29.88 in 10.0 mi Calm Calm - N/A   Partly Cloudy
10:52 AM 79.0 °F - 66.9 °F 66% 29.86 in 10.0 mi Calm Calm - 0.00 in Rain Light Rain
11:52 AM 80.1 °F 82.1 °F 66.0 °F 62% 29.86 in 10.0 mi Calm Calm - 0.00 in   Mostly Cloudy
12:52 PM 81.0 °F 82.7 °F 64.9 °F 58% 29.86 in 10.0 mi East 3.5 mph - N/A   Overcast
1:52 PM 82.0 °F 84.1 °F 66.0 °F 58% 29.84 in 10.0 mi East 6.9 mph - 0.00 in   Overcast
2:52 PM 82.9 °F 85.8 °F 68.0 °F 60% 29.81 in 10.0 mi East 6.9 mph - N/A   Mostly Cloudy
3:52 PM 82.9 °F 85.4 °F 66.9 °F 58% 29.80 in 10.0 mi East 6.9 mph - N/A   Overcast
4:52 PM 80.1 °F 82.9 °F 69.1 °F 69% 29.80 in 10.0 mi NE 6.9 mph - N/A   Overcast
5:52 PM 77.0 °F - 68.0 °F 74% 29.78 in 10.0 mi ENE 15.0 mph - N/A   Mostly Cloudy
5:59 PM 77.0 °F - 68.0 °F 74% 29.78 in 10.0 mi NE 11.5 mph - N/A   Overcast
6:07 PM 75.9 °F - 68.0 °F 76% 29.78 in 10.0 mi NE 13.8 mph 19.6 mph N/A Thunderstorm Overcast
6:22 PM 73.0 °F - 69.1 °F 87% 29.81 in 3.0 mi North 10.4 mph - 0.04 in Rain Rain
6:27 PM 72.0 °F - 68.0 °F 87% 29.79 in 1.5 mi NE 11.5 mph - 0.14 in Rain Heavy Rain
6:30 PM 72.0 °F - 68.0 °F 87% 29.78 in 1.2 mi NE 16.1 mph - 0.19 in Rain , Thunderstorm Heavy Rain
6:34 PM 72.0 °F - 69.1 °F 91% 29.78 in 0.8 mi NE 12.7 mph - 0.26 in Rain , Thunderstorm Heavy Thunderstorms and Rain
6:52 PM 70.0 °F - 68.0 °F 93% 29.78 in 0.5 mi ENE 12.7 mph - 0.72 in Fog , Rain , Thunderstorm Heavy Thunderstorms and Rain
6:58 PM 69.1 °F - 68.0 °F 96% 29.79 in 1.2 mi NE 9.2 mph - 0.03 in Rain , Thunderstorm Heavy Rain
7:02 PM 69.1 °F - 68.0 °F 96% 29.78 in 2.0 mi NE 10.4 mph - 0.03 in Rain , Thunderstorm Light Thunderstorms and Rain
7:06 PM 70.0 °F - 68.0 °F 93% 29.79 in 3.0 mi ENE 10.4 mph - 0.04 in Rain , Thunderstorm Light Thunderstorms and Rain
7:27 PM 69.1 °F - 66.9 °F 93% 29.77 in 4.0 mi ENE 11.5 mph - 0.07 in Rain , Thunderstorm Rain
7:40 PM 69.1 °F - 66.0 °F 90% 29.76 in 8.0 mi NNE 10.4 mph - 0.07 in Rain Light Rain
7:52 PM 68.0 °F - 66.0 °F 93% 29.76 in 6.0 mi NE 9.2 mph - 0.08 in Rain , Thunderstorm Light Rain
8:11 PM 68.0 °F - 66.0 °F 93% 29.80 in 7.0 mi NNE 4.6 mph - 0.03 in Rain , Thunderstorm Light Thunderstorms and Rain
8:27 PM 68.0 °F - 66.0 °F 93% 29.78 in 3.0 mi NNE 8.1 mph - 0.10 in Rain Rain
8:31 PM 68.0 °F - 66.0 °F 93% 29.78 in 4.0 mi NNE 5.8 mph - 0.11 in Rain Rain
8:39 PM 68.0 °F - 66.0 °F 93% 29.81 in 4.0 mi North 4.6 mph - 0.13 in Rain , Thunderstorm Rain
8:52 PM 68.0 °F - 66.0 °F 93% 29.81 in 3.0 mi East 3.5 mph - 0.19 in Rain , Thunderstorm Rain
9:01 PM 68.0 °F - 66.0 °F 93% 29.81 in 2.5 mi Calm Calm - 0.05 in Rain , Thunderstorm Heavy Thunderstorms and Rain
9:09 PM 68.0 °F - 66.0 °F 93% 29.81 in 2.5 mi Calm Calm - 0.09 in Rain , Thunderstorm Heavy Thunderstorms and Rain
9:16 PM 68.0 °F - 66.0 °F 93% 29.81 in 3.0 mi North 4.6 mph - 0.11 in Rain Rain
9:25 PM 68.0 °F - 66.9 °F 96% 29.81 in 3.0 mi North 5.8 mph - 0.14 in Rain , Thunderstorm Rain
9:38 PM 66.9 °F - 66.0 °F 97% 29.78 in 4.0 mi NE 11.5 mph 20.7 mph 0.19 in Rain , Thunderstorm Thunderstorms and Rain
9:47 PM 66.2 °F - 66.2 °F 100% 29.75 in 5.0 mi NE 12.7 mph - 0.21 in Rain Rain
9:52 PM 66.9 °F - 66.0 °F 97% 29.74 in 6.0 mi NE 9.2 mph - 0.22 in Rain Light Rain
10:52 PM 68.0 °F - 66.0 °F 93% 29.78 in 10.0 mi NNE 5.8 mph - 0.03 in Rain Light Rain
11:52 PM 66.9 °F - 64.9 °F 93% 29.78 in 10.0 mi North 4.6 mph - 0.01 in   Overcast